Погода Озерная

Погода Озерная : погода сейчас, прогноз погоды и архив. Всё, что Вы хотите узнать о погоде Озерная!

Хотите узнать прогноз погоды Озерная? Тогда Вам сюда: Погода Озерная

Поиск расширенной информации на нашем сайте:

Другие новости

Новости СМИ2

Главная страница сайта

Новости сайта

03.07.2017

Напоминаем, что на нашем специализированном сайте Метеоцентр.Азия вы можете получить высокодетализированные автоматические прогнозы погоды по пунктам России, СНГ и мира в авиационном формате (включающие направление и скорость ветра, видимость, явления погоды, количество и форму облачности, нижнюю и верхнюю границу облачности).


Погода Озерная - сегодня

Время (UTC), дата Ветер
(°,м/с) 
Видим.   Явления Облачность Т
(°С)
Тd
(°С)
f(%) Тe
(°С)
Pmin
(гПа)
dP
(гПа)
Po
(мм)
O2
(г/м3)
Тmin Tmax R s Состояние
почвы
06 20.07.17 190 (Ю) 20000 м  {туман}  8/3 200 м верхняя 
[St|Ci fib]
+10.6 +9.1 90 +9  1018.6  0.1  761  294           
09 20.07.17 200 (Ю) 20000 м    9/3 1000 м верхняя 
[Sc|Ci fib]
+11.1 +9 87 +10  1018.2  -0.3  761  293    +14.8       
12 20.07.17 160 (Ю) 20000 м    3/0 верхняя 
[Ci fib]
+8.5 +7.6 94 +9  1018  -0.3  761  296           
15 20.07.17 тихо ()   20000 м    ясно 
+10.6 +7.6 82 +11  1017  -1  760  294           
18 20.07.17 050 (СВ) 20000 м    9/4 600 м верхняя 
[Sc|Ci fib]
+9.2 +7.8 91 +10  1016.4  -0.6  760  295           
21 20.07.17 090 (В) 20000 м    9/3 600 м верхняя 
[Sc|Ci fib]
+16.3 +8.6 60 +16  1014.8  -1.5  759  287  +8.4         
00 21.07.17 300 (СЗ) 20000 м    9/4 1000 м верхняя 
[Sc|Ci]
+13.8 +10 78 +15  1014.5  -0.3  758  289           
03 21.07.17 210 (ЮЗ) 20000 м    9/8 1000 м средняя 
[Sc|Ac trans]
+14.4 +11.4 82 +17  1013.6  -0.9  758  288           
06 21.07.17 210 (ЮЗ) 20000 м    9/8 1000 м средняя 
[Sc|Ac trans]
+12.2 +10.5 89 +14  1013.2  -0.4  757  290           
09 21.07.17 080 (В) 10 км  слаб. ливневой дождь  10/10 300 м кучево-дожд. 
[Cb cap]
+13 +12 94 +16  1012.9  -0.3  757  289    +17.8  0.3     
12 21.07.17 090 (В) 4{12}  20000 м  в посл. час ливневой дождь  10/10 600 м кучево-дожд. 
[Cb calv]
+13.9 +12.4 91 +18  1011.3  -1.6  756  287           
15 21.07.17 110 (В) 6-10{13}  20000 м    10/10 600 м кучево-дожд. 
[Cb calv]
+16.5 +13.6 83 +22  1008.8  -2.6  754  284           
18 21.07.17 180 (Ю) 9-13{14}  10 км    10/10 600 м кучево-дожд. 
[Cb calv]
+16.7 +14.5 87 +24  1008.3  -0.4  754  283           
21 21.07.17 170 (Ю) 9-12{15}  20000 м  {ливн. осадки}  10/10 600 м кучево-дожд. 
[Cb calv]
+15.1 +13.9 93 +21  1008.4  754  285  +12       
00 22.07.17 160 (Ю) 8-12{17}  10 км  {ливн. осадки}  10/10 300 м 
[St]
+12.2 +11.3 94 +14  1009.6  1.1  755  289           
06 22.07.17 170 (Ю) 4{11}  0500 м  слаб. ливневой дождь{туман}  ?/?  
+10 +9.8 99 +10  1008.8  -0.5  754  291           
09 22.07.17 110 (В) 4000 м  ливневой дождь{туман}  10/10 300 м кучево-дожд. 
[Cb cap]
+12.1 +11.9 99 +17  1007.7  -1  753  288    +17.5  14     
12 22.07.17 190 (Ю) 10 км  слаб. ливневой дождь{туман}  10/10 300 м кучево-дожд. 
[Cb cap]
+11.3 +11 98 +13  1008.3  0.6  754  290           
15 22.07.17 190 (Ю) 10 км  слаб. ливневой дождь  10/10 200 м кучево-дожд. 
[Cb cap]
+11 +10.7 98 +12  1008.6  0.3  754  290           
18 22.07.17 200 (Ю) 4000 м  слаб. ливневой дождь  10/10 300 м кучево-дожд. 
[Cb cap]
+9.5 +9.3 99 +10  1009.7  1.1  755  292           
21 22.07.17 тихо ()   0500 м  туман{ливн. осадки}  ?/?  
+9.8 +9.5 98 +10  1011.6  1.8  756  292  +9.5    13     
00 23.07.17 230 (ЮЗ) 10 км  {ливн. осадки, туман}  9/9 200 м 
[St]
+10.9 +10.2 95 +12  1012.5  0.9  757  291           
03 23.07.17 330 (СЗ) 20000 м  туман на расстоянии  9/9 200 м 
[St]
+11.1 +10.4 95 +12  1012.4  0.1  757  291           
06 23.07.17 290 (З) 0500 м  туман  ?/?  
+10.7 +10.3 97 +12  1013.1  0.7  757  292           
09 23.07.17 310 (СЗ) 0500 м  слаб. морось{туман}  ?/?  
+9.6 +9.4 99 +11  1013.5  0.4  758  293    +12.1  0.0     
Время (UTC), дата Ветер
(°,м/с) 
Видим.   Явления Облачность Т
(°С)
Тd
(°С)
f(%) Тe
(°С)
Pmin
(гПа)
dP
(гПа)
Po
(мм)
O2
(г/м3)
Тmin Tmax R s Состояние
почвы

Для получения пояснительной информации подведите курсор к названию столбца.

ПОГОДА Озерная - архив

Всё, что Вы хотите узнать о погоде Озерная - удобно и подробно!

Выберите нужную дату (начиная с 1 января 2015* года) и нажмите кнопку "Найти".
Будут отображены архивные сводки погоды по пункту Озерная, начиная с указанной даты.


Отображать данные в формате CSV (для использования в таблицах Excel)


Внимание! Наш архив погоды предназначен исключительно для личного некоммерческого использования в познавательных целях. Если Вам необходимы официальные справки о состоянии погоды (для производственных, юридических, коммерческих и т.п. целей), обращайтесь в органы Росгидромета.

*Примечание: данная дата относится к архиву по метеостанциям СССР (Россия, СНГ, Балтия).
Архив по метеостанциям Зарубежной Европы и Азии (кроме Китая) хранится 10 дней, по другим регионам земного шара (Китай, Африка, Америка, Австралия, Океания) - 1 день.

Озерная - район местоположения метеостанции


Название, широта, долгота, высота метеостанции:
Озерная 51.5°ш. 156.5°д. 28 м над ур. моря [Российская Федерация]

Дополнительная информация

В oтличие oт бoльшинства пoгoдных сайтoв мы публикуем пoдрoбную метеoинфoрмацию в детальнoм прoфессиoнальнoм фoрмате.

Характеристики температуры и влажнoсти вoздуха измеряются на высoте 2 м в тени вдали oт зданий и деревьев.
Скoрoсть ветра измеряется на высoте 10 м (на урoвне рoста челoвека скoрoсть ветра ниже в 1.5-2 раза). Если метеoстанция нахoдится в гoрoде или в лесу, тo скoрoсть ветра занижена на 2-4 м/с пo сравнению с oткрытым местoм. Скoрoсть ветра над акватoриями крупных рек и oзёр, а также на вершинах хoлмoв на 2-5 м/с выше, чем в oбычных услoвиях.
Атмoсфернoе давление в разных тoчках местнoсти мoжет значительнo oтличаться oт давления на метеoстанции, в зависимoсти oт услoвий рельефа (при пoдъёме на 10 м давление пoнижается примернo на 1 мм рт.ст.).